Weather History for KOZR - August, 2013

Change the Weather History Date:

Sunday, August 18, 2013

  Actual Average Record
Temperature  
Mean Temperature 74 °F -  
Max Temperature 80 °F 87 °F 98 °F (1999)
Min Temperature 69 °F 67 °F 66 °F (2004)
Cooling Degree Days 10    
Growing Degree Days 24 (Base 50)    
Moisture  
Dew Point 72 °F    
Average Humidity 97    
Maximum Humidity 100    
Minimum Humidity 84    
Precipitation  
Precipitation 0.92 in - - ()
Sea Level Pressure  
Sea Level Pressure 30.09 in    
Wind  
Wind Speed 6 mph (East)    
Max Wind Speed 9 mph    
Max Gust Speed -    
Visibility 9 miles    
Events Rain    
Averages and records for this station are not official NWS values.
T = Trace of Precipitation, MM = Missing Value Source: NWS Daily Summary

Daily Weather History Graph

Daily Weather History Graph

Search for Another Location

Airport or City:

Trip Planner

Search our weather history database for the weather conditions in past years. The results will help you decide how hot, cold, wet, or windy it might be!

Date:

Astronomy

Aug. 18, 2013 Rise Set
Actual Time 6:10 AM CDT 7:22 PM CDT
Civil Twilight 5:45 AM CDT 7:47 PM CDT
Nautical Twilight 5:14 AM CDT 8:17 PM CDT
Astronomical Twilight 4:43 AM CDT 8:48 PM CDT
Moon 5:24 PM CDT (8/18) 3:24 AM CDT (8/18)
Length of Visible Light 14h 02m
Length of Day
13h 11m
Waxing Gibbous, 92% of the Moon is Illuminated
Aug 18
Waxing Gibbous
Aug 20
Full
Aug 28
Last Quarter
Sep 5
New
Sep 12
First Quarter

Hourly Weather History & Observations

Time (CDT) Temp. Heat Index Dew Point Humidity Pressure Visibility Wind Dir Wind Speed Gust Speed Precip Events Conditions
12:13 AM 69.8 °F - 69.8 °F 100% 30.06 in 10.0 mi ENE 5.8 mph - N/A   Mostly Cloudy
12:28 AM 69.8 °F - 69.8 °F 100% 30.07 in 10.0 mi East 4.6 mph - N/A   Mostly Cloudy
12:38 AM 69.8 °F - 69.8 °F 100% 30.06 in 10.0 mi East 6.9 mph - N/A   Overcast
12:43 AM 69.8 °F - 69.8 °F 100% 30.06 in 10.0 mi East 5.8 mph - N/A   Overcast
12:53 AM 69.8 °F - 69.8 °F 100% 30.06 in 10.0 mi East 6.9 mph - N/A   Overcast
12:58 AM 69.8 °F - 69.8 °F 100% 30.06 in 10.0 mi ENE 5.8 mph - N/A   Overcast
1:23 AM 69.8 °F - 69.8 °F 100% 30.06 in 10.0 mi ENE 4.6 mph - N/A   Overcast
1:58 AM 70.3 °F - 70.3 °F 100% 30.06 in 10.0 mi NE 5.8 mph - N/A   Overcast
2:58 AM 70.2 °F - 70.2 °F 100% 30.08 in 10.0 mi ENE 5.8 mph - N/A   Scattered Clouds
3:20 AM 69.8 °F - 69.8 °F 100% 30.07 in 10.0 mi NE 5.8 mph - N/A   Partly Cloudy
3:58 AM 70.0 °F - 70.0 °F 100% 30.05 in 10.0 mi ENE 6.9 mph - N/A   Partly Cloudy
4:13 AM 69.8 °F - 69.8 °F 100% 30.06 in 10.0 mi NE 3.5 mph - N/A   Mostly Cloudy
4:28 AM 69.8 °F - 69.8 °F 100% 30.07 in 10.0 mi NNE 2.3 mph - N/A   Mostly Cloudy
4:42 AM 69.8 °F - 69.8 °F 100% 30.07 in 7.0 mi ENE 2.3 mph - N/A Rain Rain
4:47 AM 69.8 °F - 69.8 °F 100% 30.06 in 5.0 mi East 5.8 mph - N/A Rain Rain
4:52 AM 69.8 °F - 69.8 °F 100% 30.05 in 6.0 mi East 6.9 mph - N/A Rain Light Rain
4:57 AM 69.8 °F - 69.8 °F 100% 30.05 in 8.0 mi East 6.9 mph - N/A Rain Light Rain
4:58 AM 70.2 °F - 70.2 °F 100% 30.05 in 8.0 mi East 6.9 mph - 0.04 in Rain Light Rain
5:46 AM 69.8 °F - 69.8 °F 100% 30.08 in 10.0 mi NNW 5.8 mph - N/A Rain Light Rain
5:58 AM 69.8 °F - 69.8 °F 100% 30.10 in 10.0 mi NW 4.6 mph - 0.03 in Rain Light Rain
6:03 AM 69.8 °F - 69.8 °F 100% 30.09 in 10.0 mi North 4.6 mph - N/A Rain Light Rain
6:13 AM 69.8 °F - 69.8 °F 100% 30.09 in 9.0 mi North 5.8 mph - N/A Rain Light Rain
6:23 AM 69.8 °F - 69.8 °F 100% 30.09 in 9.0 mi North 3.5 mph - N/A Rain Light Rain
6:38 AM 69.8 °F - 69.8 °F 100% 30.09 in 8.0 mi NE 6.9 mph - N/A Rain Light Rain
6:58 AM 70.2 °F - 70.2 °F 100% 30.08 in 6.0 mi NE 8.1 mph - 0.09 in Rain Rain
7:40 AM 69.8 °F - 69.8 °F 100% 30.09 in 10.0 mi NE 8.1 mph - N/A Rain Light Rain
7:55 AM 69.8 °F - 69.8 °F 100% 30.09 in 10.0 mi NE 8.1 mph - N/A Rain Light Rain
7:58 AM 69.8 °F - 69.8 °F 100% 30.09 in 10.0 mi ENE 8.1 mph - 0.04 in Rain Light Rain
8:02 AM 69.8 °F - 69.8 °F 100% 30.09 in 10.0 mi ENE 9.2 mph - N/A   Mostly Cloudy
8:07 AM 71.6 °F - 71.6 °F 100% 30.08 in 10.0 mi ENE 9.2 mph - N/A   Overcast
8:12 AM 71.6 °F - 71.6 °F 100% 30.08 in 10.0 mi ENE 8.1 mph - N/A   Overcast
8:29 AM 71.6 °F - 71.6 °F 100% 30.08 in 10.0 mi ENE 8.1 mph - N/A   Overcast
8:54 AM 71.6 °F - 71.6 °F 100% 30.09 in 10.0 mi East 9.2 mph - N/A   Overcast
8:58 AM 71.6 °F - 71.6 °F 100% 30.09 in 10.0 mi East 6.9 mph - 0.00 in   Overcast
9:23 AM 71.6 °F - 71.6 °F 100% 30.11 in 7.0 mi East 6.9 mph - N/A   Overcast
9:58 AM 73.6 °F - 73.6 °F 100% 30.11 in 9.0 mi East 8.1 mph - N/A   Overcast
10:08 AM 73.4 °F - 73.4 °F 100% 30.11 in 10.0 mi ENE 5.8 mph - N/A   Overcast
10:28 AM 75.2 °F - 75.2 °F 100% 30.11 in 10.0 mi ENE 6.9 mph - N/A   Overcast
10:48 AM 77.0 °F - 75.2 °F 94% 30.11 in 10.0 mi East 5.8 mph - N/A   Overcast
10:58 AM 76.5 °F - 74.8 °F 95% 30.11 in 10.0 mi East 4.6 mph - N/A   Overcast
11:08 AM 77.0 °F - 75.2 °F 94% 30.10 in 10.0 mi East 5.8 mph - N/A   Overcast
11:43 AM 77.0 °F - 75.2 °F 94% 30.10 in 10.0 mi ESE 6.9 mph - N/A   Overcast
11:58 AM 78.4 °F - 75.2 °F 90% 30.10 in 10.0 mi East 4.6 mph - N/A   Overcast
12:33 PM 78.8 °F - 75.2 °F 89% 30.08 in 10.0 mi East 5.8 mph - N/A   Overcast
12:53 PM 78.8 °F - 75.2 °F 89% 30.08 in 10.0 mi East 5.8 mph - N/A   Overcast
12:58 PM 79.3 °F - 75.9 °F 89% 30.09 in 10.0 mi East 5.8 mph - N/A   Overcast
1:03 PM 80.6 °F 87.1 °F 77.0 °F 89% 30.08 in 10.0 mi East 4.6 mph - N/A   Mostly Cloudy
1:20 PM 80.6 °F 86.2 °F 75.2 °F 84% 30.10 in 10.0 mi ESE 6.9 mph - N/A   Light Drizzle
1:25 PM 80.6 °F 87.1 °F 77.0 °F 89% 30.11 in 10.0 mi ESE 9.2 mph - N/A   Light Drizzle
1:29 PM 80.6 °F 86.2 °F 75.2 °F 84% 30.11 in 10.0 mi ESE 6.9 mph - N/A   Mostly Cloudy
1:34 PM 78.8 °F - 77.0 °F 94% 30.10 in 10.0 mi East 8.1 mph - N/A   Mostly Cloudy
1:39 PM 78.8 °F - 75.2 °F 89% 30.10 in 10.0 mi ESE 5.8 mph - N/A   Mostly Cloudy
1:51 PM 80.6 °F 86.2 °F 75.2 °F 84% 30.09 in 10.0 mi East 5.8 mph - N/A   Light Drizzle
1:58 PM 79.9 °F - 76.1 °F 88% 30.09 in 10.0 mi ESE 5.8 mph - 0.00 in Rain Light Rain
2:08 PM 78.8 °F - 77.0 °F 94% 30.09 in 10.0 mi East 5.8 mph - N/A   Light Drizzle
2:09 PM 78.8 °F - 77.0 °F 94% 30.09 in 10.0 mi East 5.8 mph - N/A   Scattered Clouds
2:18 PM 78.8 °F - 77.0 °F 94% 30.09 in 10.0 mi ESE 4.6 mph - N/A Rain Light Rain
2:58 PM 74.8 °F - 72.3 °F 92% 30.08 in 10.0 mi South 4.6 mph - 0.03 in Rain Light Rain
3:58 PM 72.1 °F - 71.1 °F 96% 30.10 in 5.0 mi SSE 9.2 mph - 0.12 in Rain Rain
4:28 PM 71.6 °F - 71.6 °F 100% 30.11 in 2.5 mi SSW 8.1 mph - N/A Rain Heavy Rain
4:29 PM 71.6 °F - 71.6 °F 100% 30.12 in 2.5 mi SSW 8.1 mph - N/A Rain Heavy Rain
4:34 PM 71.6 °F - 71.6 °F 100% 30.12 in 3.0 mi SSW 5.8 mph - N/A Rain Rain
4:39 PM 71.6 °F - 71.6 °F 100% 30.11 in 2.5 mi SSE 4.6 mph - N/A Rain Heavy Rain
4:44 PM 71.6 °F - 71.6 °F 100% 30.11 in 3.0 mi SSE 4.6 mph - N/A Rain Heavy Rain
4:58 PM 71.6 °F - 70.7 °F 97% 30.11 in 2.5 mi ESE 4.6 mph - 0.23 in Rain Heavy Rain
5:08 PM 71.6 °F - 69.8 °F 94% 30.11 in 2.5 mi East 5.8 mph - N/A Rain Heavy Rain
5:23 PM 71.6 °F - 71.6 °F 100% 30.10 in 3.0 mi East 6.9 mph - N/A Rain Rain
5:58 PM 71.8 °F - 71.4 °F 99% 30.08 in 7.0 mi East 9.2 mph - 0.25 in Rain Light Rain
6:45 PM 71.6 °F - 71.6 °F 100% 30.06 in 10.0 mi East 9.2 mph - N/A   Clear
6:58 PM 71.4 °F - 71.2 °F 99% 30.06 in 10.0 mi ESE 6.9 mph - 0.09 in   Clear
7:58 PM 71.6 °F - 71.1 °F 98% 30.08 in 10.0 mi ESE 2.3 mph - N/A   Clear
8:58 PM 70.7 °F - 70.3 °F 99% 30.07 in 10.0 mi NNE 2.3 mph - N/A   Clear
9:58 PM 70.3 °F - 70.3 °F 100% 30.08 in 10.0 mi East 3.5 mph - N/A   Clear
10:58 PM 69.4 °F - 69.4 °F 100% 30.07 in 10.0 mi ENE 4.6 mph - N/A   Clear
11:58 PM 69.4 °F - 69.4 °F 100% 30.09 in 10.0 mi NE 3.5 mph - N/A   Clear